DW0687 Weather Reports


time (UTC)temp
C
wind
direction
speed
KPH
gust
KPH
rain 1hr
cm
rain 24hr
cm
rain mn
cm
humidity
%
barometer
mb
20260504173503 17 72 3.2 22.5 0.00 0.00 0.00 37 1004.0
20260504173006 17 50 4.8 22.5 0.00 0.00 0.00 37 1003.9
20260504172504 17 63 6.4 22.5 0.00 0.00 0.00 41 1004.0
20260504172008 17 29 6.4 16.1 0.00 0.00 0.00 40 1004.0
20260504171512 17 46 4.8 16.1 0.00 0.00 0.00 38 1004.0
20260504171006 17 29 3.2 16.1 0.00 0.00 0.00 40 1004.1
20260504170507 17 46 6.4 16.1 0.00 0.00 0.00 36 1004.1
20260504151003 16 101 4.8 22.5 0.00 0.00 0.00 44 1002.7
20260504150508 16 49 4.8 22.5 0.00 0.00 0.00 43 1002.6
20260504141008 15 81 4.8 17.7 0.00 0.00 0.00 51 1002.0
20260504140503 15 14 4.8 16.1 0.00 0.00 0.00 54 1002.1
20260504130508 12 68 1.6 6.4 0.00 0.00 0.00 65 1001.3
20260504110508 11 268 0.0 9.7 0.00 0.00 0.00 61 999.8
20260504100505 11 239 0.0 6.4 0.00 0.00 0.00 60 1000.3
20260504082004 12 234 3.2 12.9 0.00 0.00 0.00 53 1001.4
20260504081514 11 232 3.2 12.9 0.00 0.00 0.00 53 1001.4
20260504081007 11 229 4.8 11.3 0.00 0.00 0.00 53 1001.5
20260504080507 11 224 1.6 9.7 0.00 0.00 0.00 53 1001.5
20260504050508 13 252 0.0 1.6 0.00 0.00 0.00 48 1003.9
20260504045508 13 252 0.0 1.6 0.00 0.00 0.00 48 1004.2
20260504045007 13 252 0.0 1.6 0.00 0.00 0.00 47 1004.2
20260504044516 13 252 0.0 1.6 0.00 0.00 0.00 47 1004.2
20260504044004 13 252 0.0 1.6 0.00 0.00 0.00 47 1004.3
20260504043507 13 252 0.0 0.0 0.00 0.00 0.00 47 1004.4
20260504043022 13 252 0.0 1.6 0.00 0.00 0.00 47 1004.5
20260504042508 13 252 0.0 1.6 0.00 0.00 0.00 47 1004.7
20260504042008 13 252 0.0 1.6 0.00 0.00 0.00 46 1004.8
20260504041521 13 252 0.0 1.6 0.00 0.00 0.00 46 1004.9
20260504041008 14 252 0.0 1.6 0.00 0.00 0.00 46 1005.1
20260504040508 14 252 0.0 1.6 0.00 0.00 0.00 46 1005.1
20260504040029 14 252 0.0 0.0 0.00 0.00 0.00 45 1005.0
20260504035512 14 252 0.0 0.0 0.00 0.00 0.00 45 1005.0
20260504035011 14 252 0.0 0.0 0.00 0.00 0.00 45 1005.0
20260504034528 14 252 0.0 1.6 0.00 0.00 0.00 45 1005.0
20260504034007 14 252 0.0 1.6 0.00 0.00 0.00 45 1005.1
20260504033507 15 252 0.0 0.0 0.00 0.00 0.00 44 1005.1
20260504033016 15 252 0.0 0.0 0.00 0.00 0.00 44 1005.2
20260504032507 15 252 0.0 1.6 0.00 0.00 0.00 43 1005.3
20260504032010 15 252 0.0 4.8 0.00 0.00 0.00 42 1005.4
20260504031528 15 252 0.0 4.8 0.00 0.00 0.00 42 1005.5
20260504031007 16 269 0.0 4.8 0.00 0.00 0.00 41 1005.5
20260504030507 16 276 0.0 6.4 0.00 0.00 0.00 42 1005.6
20260504030025 16 269 0.0 6.4 0.00 0.00 0.00 42 1005.6
20260504025508 16 252 0.0 4.8 0.00 0.00 0.00 42 1005.8
20260504025008 16 265 0.0 3.2 0.00 0.00 0.00 42 1005.8
20260504024524 16 264 0.0 3.2 0.00 0.00 0.00 41 1005.8
20260504024009 16 264 0.0 3.2 0.00 0.00 0.00 41 1005.8
20260504023510 16 264 0.0 4.8 0.00 0.00 0.00 41 1005.8
20260504023030 16 264 0.0 4.8 0.00 0.00 0.00 40 1005.8
20260504022509 16 261 0.0 4.8 0.00 0.00 0.00 41 1005.8
20260504022010 16 288 0.0 4.8 0.00 0.00 0.00 40 1005.8
20260504021520 17 288 0.0 4.8 0.00 0.00 0.00 40 1005.8
20260504021006 17 288 0.0 3.2 0.00 0.00 0.00 40 1005.8
20260504020508 17 288 0.0 1.6 0.00 0.00 0.00 39 1005.8
20260504020021 17 288 0.0 3.2 0.00 0.00 0.00 38 1005.8
20260504015507 18 288 0.0 6.4 0.00 0.00 0.00 38 1005.9
20260504015010 18 288 0.0 6.4 0.00 0.00 0.00 38 1006.0
20260504014525 18 284 0.0 4.8 0.00 0.00 0.00 37 1006.1
20260504014009 18 284 0.0 4.8 0.00 0.00 0.00 37 1006.2
20260504013509 18 284 0.0 4.8 0.00 0.00 0.00 37 1006.2
20260504013036 18 284 0.0 6.4 0.00 0.00 0.00 37 1006.2
20260504012516 19 284 0.0 6.4 0.00 0.00 0.00 36 1006.4
20260504012011 19 273 0.0 8.0 0.00 0.00 0.00 36 1006.2
20260504011527 20 301 1.6 8.0 0.00 0.00 0.00 36 1006.4
20260504011011 20 263 0.0 6.4 0.00 0.00 0.00 36 1006.4
20260504010512 20 263 0.0 6.4 0.00 0.00 0.00 35 1006.4
20260504010018 20 263 1.6 8.0 0.00 0.00 0.00 34 1006.5
20260504005507 20 281 0.0 11.3 0.00 0.00 0.00 34 1006.5
20260504005008 20 260 1.6 11.3 0.00 0.00 0.00 34 1006.5
20260504004522 20 311 1.6 9.7 0.00 0.00 0.00 34 1006.5
20260504004009 21 326 3.2 9.7 0.00 0.00 0.00 34 1006.6
20260504003509 21 303 1.6 9.7 0.00 0.00 0.00 34 1006.6
20260504003026 21 322 1.6 9.7 0.00 0.00 0.00 34 1006.5
20260504002509 21 239 1.6 12.9 0.00 0.00 0.00 32 1006.6
20260504002003 21 236 1.6 12.9 0.00 0.00 0.00 32 1006.6
20260504001510 21 249 3.2 16.1 0.00 0.00 0.00 31 1006.7
20260504001010 22 340 3.2 16.1 0.00 0.00 0.00 30 1006.6
20260504000511 22 352 1.6 14.5 0.00 0.00 0.00 32 1006.7
20260504000016 22 335 4.8 16.1 0.00 0.00 0.00 31 1006.8
20260503235507 22 303 4.8 16.1 0.00 0.00 0.00 31 1006.9
20260503235007 22 238 3.2 12.9 0.00 0.00 0.00 31 1007.0
20260503234523 22 237 1.6 12.9 0.00 0.00 0.00 30 1006.9
20260503234008 22 292 4.8 12.9 0.00 0.00 0.00 29 1007.0
20260503233505 22 29 3.2 12.9 0.00 0.00 0.00 29 1007.1
20260503233006 22 265 1.6 16.1 0.00 0.00 0.00 30 1007.1
20260503232502 22 345 3.2 16.1 0.00 0.00 0.00 30 1007.2
20260503232002 22 316 4.8 16.1 0.00 0.00 0.00 31 1007.2
20260503231512 22 239 4.8 14.5 0.00 0.00 0.00 32 1007.3
20260503231006 22 257 1.6 16.1 0.00 0.00 0.00 31 1007.3
20260503230507 22 248 4.8 16.1 0.00 0.00 0.00 30 1007.5
20260503230013 22 18 3.2 16.1 0.00 0.00 0.00 30 1007.5
20260503225511 22 51 3.2 11.3 0.00 0.00 0.00 31 1007.4
20260503225006 22 54 0.0 16.1 0.00 0.00 0.00 32 1007.5
20260503224518 22 211 3.2 16.1 0.00 0.00 0.00 31 1007.5
20260503224011 22 275 3.2 14.5 0.00 0.00 0.00 30 1007.4
20260503223511 22 320 4.8 14.5 0.00 0.00 0.00 30 1007.5
20260503223024 22 268 3.2 12.9 0.00 0.00 0.00 30 1007.5
20260503222504 22 274 1.6 16.1 0.00 0.00 0.00 31 1007.5
20260503222004 22 280 8.0 16.1 0.00 0.00 0.00 30 1007.5
20260503221511 22 257 3.2 12.9 0.00 0.00 0.00 31 1007.5
20260503221006 22 251 1.6 12.9 0.00 0.00 0.00 32 1007.5
20260503220509 22 335 1.6 14.5 0.00 0.00 0.00 31 1007.6
20260503220010 22 2 3.2 14.5 0.00 0.00 0.00 32 1007.7
20260503215507 22 345 4.8 17.7 0.00 0.00 0.00 31 1007.7
20260503215011 22 289 4.8 17.7 0.00 0.00 0.00 32 1007.8
20260503214516 22 282 4.8 17.7 0.00 0.00 0.00 31 1007.9
20260503214008 22 116 1.6 16.1 0.00 0.00 0.00 34 1007.9
20260503213507 22 63 3.2 16.1 0.00 0.00 0.00 33 1008.0
20260503213022 22 301 1.6 19.3 0.00 0.00 0.00 31 1008.0
20260503212510 22 340 3.2 19.3 0.00 0.00 0.00 35 1008.2
20260503212009 22 246 1.6 12.9 0.00 0.00 0.00 35 1008.3
20260503211533 22 266 1.6 9.7 0.00 0.00 0.00 33 1008.4
20260503211004 22 323 1.6 9.7 0.00 0.00 0.00 35 1008.5
20260503210505 22 31 1.6 12.9 0.00 0.00 0.00 33 1008.5
20260503210010 22 6 4.8 12.9 0.00 0.00 0.00 33 1008.5
20260503205506 22 29 3.2 14.5 0.00 0.00 0.00 32 1008.7
20260503205010 22 67 3.2 14.5 0.00 0.00 0.00 34 1008.9
20260503204516 22 357 4.8 14.5 0.00 0.00 0.00 34 1009.0
20260503204008 22 57 1.6 24.1 0.00 0.00 0.00 36 1009.1
20260503203508 22 47 4.8 24.1 0.00 0.00 0.00 36 1009.1
20260503203018 22 8 8.0 24.1 0.00 0.00 0.00 35 1009.1
20260503202509 22 270 4.8 16.1 0.00 0.00 0.00 36 1009.2
20260503202010 21 50 4.8 16.1 0.00 0.00 0.00 37 1009.3
20260503201524 22 51 4.8 16.1 0.00 0.00 0.00 33 1009.3
20260503201008 22 40 4.8 12.9 0.00 0.00 0.00 35 1009.3
20260503200509 22 290 3.2 12.9 0.00 0.00 0.00 34 1009.4
20260503200008 21 340 3.2 12.9 0.00 0.00 0.00 39 1009.5
20260503195505 21 37 4.8 12.9 0.00 0.00 0.00 35 1009.7
20260503195005 21 37 3.2 14.5 0.00 0.00 0.00 37 1009.7
20260503194512 21 41 4.8 14.5 0.00 0.00 0.00 35 1009.6
20260503194008 21 249 1.6 12.9 0.00 0.00 0.00 36 1009.6
20260503193508 21 359 3.2 12.9 0.00 0.00 0.00 37 1009.7
20260503193015 21 68 1.6 14.5 0.00 0.00 0.00 37 1009.7
20260503192508 21 300 1.6 14.5 0.00 0.00 0.00 37 1009.8
20260503192007 21 45 3.2 12.9 0.00 0.00 0.00 38 1009.8
20260503191522 21 272 3.2 12.9 0.00 0.00 0.00 38 1010.0
20260503191008 21 328 4.8 12.9 0.00 0.00 0.00 39 1010.0
20260503190508 21 4 0.0 19.3 0.00 0.00 0.00 40 1010.0
20260503190041 21 76 3.2 19.3 0.00 0.00 0.00 40 1010.0
20260503185511 21 282 3.2 14.5 0.00 0.00 0.00 38 1010.0
20260503185010 21 87 3.2 19.3 0.00 0.00 0.00 39 1010.3
20260503184512 21 280 4.8 19.3 0.00 0.00 0.00 44 1010.2
20260503184006 21 47 9.7 19.3 0.00 0.00 0.00 39 1010.2
20260503183508 21 47 3.2 16.1 0.00 0.00 0.00 39 1010.3
20260503183017 21 6 3.2 16.1 0.00 0.00 0.00 35 1010.5
20260503182508 21 66 4.8 17.7 0.00 0.00 0.00 37 1010.6
20260503182006 21 83 3.2 17.7 0.00 0.00 0.00 34 1010.7
20260503181519 21 41 3.2 16.1 0.00 0.00 0.00 40 1010.7
20260503181008 21 31 4.8 17.7 0.00 0.00 0.00 38 1010.7
20260503180509 21 74 4.8 17.7 0.00 0.00 0.00 39 1010.7
20260503180036 21 64 3.2 14.5 0.00 0.00 0.00 38 1010.8
20260503175509 21 49 3.2 14.5 0.00 0.00 0.00 41 1010.9
20260503175010 20 40 3.2 17.7 0.00 0.00 0.00 41 1010.9
20260503174526 20 60 4.8 17.7 0.00 0.00 0.00 42 1010.9
20260503174010 20 74 3.2 17.7 0.00 0.00 0.00 39 1010.9